Regional Weather Roundup
Issued by NWS Northern Indiana

Home | Current Version | Previous Version | Graphics & Text | Print | Product List | Glossary On
Versions: 1 2 3 4 5 6 7 8 9 10 11 12 13 14 15 16 17 18 19 20 21 22 23 24 25 26 27 28 29 30 31 32 33 34 35 36 37 38 39 40 41 42 43 44 45 46 47 48 49 50
000
ASUS43 KIWX 211600
RWRIWX

KIWX WEATHER ROUNDUP
NATIONAL WEATHER SERVICE NORTHERN INDIANA
1100 AM EST TUE NOV 21 2017

NOTE: "FAIR" INDICATES FEW OR NO CLOUDS BELOW 12,000 FEET WITH NO
SIGNIFICANT WEATHER AND/OR OBSTRUCTIONS TO VISIBILITY.

* THESE STATIONS ARE NOT UNDER NWS QUALITY CONTROL. THEY ALSO MAY NOT
  REPORT WEATHER SUCH AS PRECIPITATION OR FOG.

INZ001>027-211700-
NORTHERN INDIANA

CITY           SKY/WX    TMP DP  RH WIND       PRES   REMARKS
GARY*          CLOUDY    45  32  61 W14G28    29.80R
MICHIGAN CITY* CLOUDY    45  32  61 SW13G21   29.78R
KNOX*          CLOUDY    45  32  61 SW20      29.80R
SOUTH BEND     MOSUNNY   44  33  65 SW21G31   29.79R
ELKHART*       PTSUNNY   46  30  53 W16G28    29.78R
GOSHEN         CLOUDY    45  30  55 SW20G29   29.79R
MONTICELLO*    CLOUDY    45  31  59 SW17G26   29.83R
WARSAW*        CLOUDY    45  32  61 SW17G24   29.80R
AUBURN*        SUNNY     46  30  53 SW13G22   29.80R
FORT WAYNE     PTSUNNY   48  33  56 SW20G29   29.82R
PERU/GRISSOM   CLOUDY    46  33  60 SW23G29   29.83R

$$
INZ028>050-211700-
CENTRAL INDIANA

CITY           SKY/WX    TMP DP  RH WIND       PRES   REMARKS
LAFAYETTE      CLOUDY    46  33  60 SW12G25   29.86R
KOKOMO*        CLOUDY    47  32  56 SW25G31   29.85R
MUNCIE*        SUNNY     48  29  47 SW16G25   29.86R
INDIANAPOLIS   MOSUNNY   50  31  48 SW14      29.91R

$$
MIZ043>046-050>051-056>058-064>065-071>073-077>080-211700-
SOUTHWEST LOWER MICHIGAN

CITY           SKY/WX    TMP DP  RH WIND       PRES   REMARKS
BATTLE CREEK   MOSUNNY   48  33  56 SW20      29.72R
BENTON HARBOR  CLOUDY    46  34  62 W18G28    29.77R
COLDWATER*     MOSUNNY   46  29  52 SW21G28   29.75R
HILLSDALE*     SUNNY     46  30  53 SW14G26   29.74R
HOLLAND        CLOUDY    47  38  71 W16       29.73R
GRAND RAPIDS   LGT RAIN  46  40  79 W24G31    29.70R
KALAMAZOO      MOSUNNY   47  30  51 SW17G24   29.73R
STURGIS*       MOSUNNY   46  32  59 SW18G28   29.76R
THREE RIVERS*  FAIR      48  32  53 SW16      29.76R

$$
OHZ001>008-015>018-024>025-211700-
NORTHWEST OHIO

CITY           SKY/WX    TMP DP  RH WIND       PRES   REMARKS
DEFIANCE       SUNNY     47  31  53 SW17G25   29.80R
FINDLAY        CLOUDY    48  29  47 SW22G35   29.82S
TOLEDO EXPRESS CLOUDY    49  32  52 SW20G32   29.78R
TOLEDO METCALF CLOUDY    48  31  51 SW23G33   29.80R
LIMA           SUNNY     45  30  55 SW20G30   29.84S

$$
AND FOR LAKE MICHIGAN COASTAL AND OPEN LAKE BUOY OBSERVATIONS

STATION/POSITION TEMP    WIND        PRES    VSBY  WAVE
                 AIR SEA DIR/SP/G                  HT/PER
                 (F)     (DEG/KT/KT) (MB)    (MI)  (FT/S)
CALUMET HARBOR    44     230/ 11/ 17 1007.8R
MICHIGAN CITY     44     210/ 20/ 23   N/A
BURNS HARBOR      44     220/ 14/ 19 1008.8R
SAINT JOSEPH      45     220/ 22/ 28 1007.5
SOUTH LAKE BUOY   46 48  280/ 21/ 25 1005.6          6/ 6

$$
&&



USA.gov is the U.S. government's official web portal to all federal, state and local government web resources and services.